www.pogodaiklimat.ru

Погода и климат >> Архив погоды >> Франция >> Авиньон


ПОГОДА в Авиньон

  • Прогноз погоды в Авиньон
  • Монитор погоды в Авиньон

АРХИВ ПОГОДЫ в Авиньон

Время (UTC), дата Ветер
(напр.,м/с)
 
Видим.   Явления Облачность Т
(С)
Тd
(С)
f
(%)
Тe
(С)
Тes
(С)
Комфортность P
(гПа)
Po
(гПа)
Тmin
(С)
Tmax
(С)
R
(мм)
R24
(мм)
S
(см)
01 14.07 С 4-6
{7}
60 км н/о +22.4 +9.2 43 +24 +24 комфорт 1011.4 1005.8
02 14.07 С 3-5
{7}
60 км н/о +21.8 +9.3 45 +23 +23 комфорт 1011.3 1005.7
03 14.07 С 3-6
{6}
60 км н/о +21.1 +9.3 47 +22 +22 комфорт 1011.1 1005.5 0
04 14.07 С 3-6
{6}
60 км н/о +20.5 +9.7 50 +22 +22 комфорт 1010.7 1005.1
05 14.07 С 4-6
{6}
21 км н/о +20.4 +9.9 51 +22 +22 комфорт 1010.6 1005.0
06 14.07 С 4-14
{14}
26 км н/о +21.5 +10.3 49 +23 +23 комфорт 1010.5 1004.9 +20.0 +28.4 0
07 14.07 С 4-6
{6}
30 км н/о +23.1 +10.8 46 +25 +25 комфорт 1010.6 1005.1
08 14.07 С 4-6
{6}
30 км н/о +25.3 +10.7 40 +26 +26 жарко 1010.6 1005.1
09 14.07 С 4-6
{7}
35 км н/о +27.1 +10.3 35 +28 +28 жарко 1010.2 1004.7 0
10 14.07 С 3-5
{6}
30 км н/о +29.0 +10.6 32 +29 +29 жарко 1009.7 1004.3
11 14.07 СЗ 4-5
{5}
30 км н/о +30.8 +11.2 30 +31 +31 жарко 1009.3 1003.9
12 14.07 СЗ 4-6
{6}
28 км н/о +31.2 +11.1 29 +31 +31 жарко 1008.7 1003.3 0
13 14.07 СЗ 4-6
{6}
24 км н/о +31.2 +10.5 28 +31 +31 жарко 1008.3 1002.9
14 14.07 СЗ 4-5
{6}
23 км н/о +32.3 +10.9 27 +32 +32 жарко 1007.8 1002.4
15 14.07 С 4-6
{6}
22 км н/о +31.6 +10.3 27 +31 +31 жарко 1007.6 1002.2 0
16 14.07 С 4-6
{6}
20 км н/о +31.5 +9.7 26 +31 +31 жарко 1007.4 1002.0
17 14.07 С 4-7
{7}
19 км н/о +30.2 +8.6 26 +30 +30 жарко 1007.4 1002.0
18 14.07 С 5-15
{15}
24 км н/о +28.8 +8.5 28 +28 +28 жарко 1007.5 1002.1 +21.4 +32.8 0
19 14.07 С 5-8
{8}
35 км н/о +27.0 +8.4 31 +27 +27 жарко 1007.9 1002.4
20 14.07 С 5-7
{8}
60 км н/о +26.1 +7.6 31 +26 +26 жарко 1008.1 1002.6
21 14.07 С 5-9
{9}
60 км н/о +25.3 +9.2 36 +26 +26 жарко 1008.6 1003.1 0
22 14.07 С 6-9
{10}
60 км н/о +24.0 +11.0 44 +25 +25 комфорт 1009.0 1003.5
23 14.07 С 5-8
{10}
60 км н/о +23.0 +10.4 45 +25 +25 комфорт 1009.3 1003.8
00 15.07 С 5-8
{9}
60 км н/о +21.8 +10.6 49 +24 +24 комфорт 1009.2 1003.6 0
01 15.07 С 6-9
{11}
60 км н/о +21.0 +10.5 51 +23 +23 комфорт 1009.0 1003.4
02 15.07 С 6-9
{10}
60 км н/о +20.4 +9.9 51 +22 +22 комфорт 1009.0 1003.4
03 15.07 С 6-8
{9}
60 км н/о +19.7 +9.8 53 +21 +21 комфорт 1008.9 1003.3 0
04 15.07 С 4-8
{10}
60 км н/о +19.2 +9.9 55 +20 +20 1009.2 1003.6
05 15.07 С 7-11
{11}
2200 м дымка н/о +19.1 +10.4 57 +19 +19 1008.5 1002.9
06 15.07 С 7-22
{22}
5000 м н/о +19.5 +11.0 58 +20 +20 1009.2 1003.6 +19.0 +28.8 0
07 15.07 С 9-12
{13}
4600 м дымка н/о +20.3 +11.2 56 +21 +21 комфорт 1008.8 1003.2
08 15.07 С 7-11
{12}
5000 м н/о +21.7 +11.1 51 +24 +24 комфорт 1008.6 1003.0
09 15.07 С 6-9
{12}
20 км н/о +22.7 +11.1 48 +25 +25 комфорт 1008.9 1003.4 0
10 15.07 С 6 8000 м н/о +23.8 +10.8 44 +25 +25 комфорт 1008.3 1002.8
11 15.07 С 8-13
{13}
12 км н/о +24.7 +10.6 41 +26 +26 жарко 1007.9 1002.4
12 15.07 С 8-13
{13}
9000 м н/о +25.7 +10.7 39 +27 +27 жарко 1007.8 1002.3 0
13 15.07 С 8-12
{12}
9000 м н/о +26.7 +10.8 37 +28 +28 жарко 1008.4 1002.9
14 15.07 С 6-11
{11}
8000 м н/о +27.0 +10.7 36 +28 +28 жарко 1008.4 1002.9
15 15.07 С 6-9
{11}
8000 м н/о +28.0 +11.5 36 +29 +29 жарко 1009.0 1003.6 0
16 15.07 С 6-9
{9}
15 км н/о +27.7 +11.3 36 +29 +29 жарко 1009.0 1003.5
17 15.07 С 5-8
{9}
16 км н/о +27.9 +11.4 36 +29 +29 жарко 1009.4 1004.0
18 15.07 С 6-20
{20}
21 км н/о +26.8 +11.3 38 +28 +28 жарко 1010.0 1004.5 +19.5 +28.3 0
19 15.07 С 5-7
{9}
55 км н/о +25.8 +11.2 40 +27 +27 жарко 1010.7 1005.2
20 15.07 С 5-7
{7}
60 км н/о +25.1 +10.9 41 +26 +26 жарко 1011.4 1005.9
21 15.07 С 4-6
{8}
60 км н/о +24.6 +10.5 41 +26 +26 жарко 1012.2 1006.7 0
22 15.07 С 4-7
{7}
60 км н/о +23.8 +10.5 43 +25 +25 комфорт 1012.8 1007.3
23 15.07 С 3-5
{6}
60 км н/о +23.2 +10.6 45 +25 +25 комфорт 1013.1 1007.5
00 16.07 С 3-4
{5}
60 км н/о +22.1 +10.9 49 +24 +24 комфорт 1013.3 1007.7 0
01 16.07 С 3-4
{5}
60 км н/о +21.6 +10.7 50 +23 +23 комфорт 1013.4 1007.8
02 16.07 С 2-4
{5}
60 км н/о +20.8 +10.9 53 +23 +23 комфорт 1013.5 1007.9
03 16.07 С 2-3
{4}
60 км н/о +19.8 +10.5 55 +22 +22 комфорт 1013.5 1007.9 0
04 16.07 С 2-4
{4}
60 км н/о +19.6 +10.6 56 +21 +21 комфорт 1013.8 1008.2
05 16.07 С 2-4
{5}
50 км н/о +20.1 +10.2 53 +22 +22 комфорт 1014.2 1008.6
06 16.07 С 2
{8}
55 км н/о +21.5 +10.9 51 +23 +23 комфорт 1014.8 1009.2 +19.0 +26.8 0
07 16.07 С 1-2
{4}
55 км н/о +23.1 +11.5 48 +25 +25 комфорт 1015.1 1009.5
08 16.07 С 2-4
{4}
60 км н/о +24.7 +12.0 45 +26 +26 жарко 1015.1 1009.6
09 16.07 СЗ 2-4
{4}
60 км н/о +26.0 +11.7 41 +27 +27 жарко 1015.0 1009.5 0
10 16.07 СВ 2-3
{4}
60 км н/о +27.5 +12.3 39 +29 +29 жарко 1014.9 1009.4
11 16.07 В 1-2
{3}
60 км н/о +29.7 +11.7 33 +30 +30 жарко 1014.4 1009.0
12 16.07 З 2-3
{4}
60 км н/о +30.4 +11.4 31 +31 +31 жарко 1014.2 1008.8 0
13 16.07 СЗ 1-3
{4}
19 км н/о +31.2 +11.6 30 +32 +32 жарко 1013.9 1008.5
14 16.07 СЗ 2-4
{4}
60 км н/о +31.7 +11.5 29 +32 +32 жарко 1013.7 1008.3
15 16.07 С 2-3
{4}
60 км н/о +32.7 +9.5 24 +32 +32 жарко 1013.4 1008.0 0
16 16.07 З 2-5
{5}
19 км н/о +31.7 +13.9 34 +33 +33 жарко 1013.2 1007.8
17 16.07 ЮЗ 3-4
{4}
30 км н/о +30.4 +14.1 37 +32 +32 жарко 1013.1 1007.7
18 16.07 ЮЗ 3
{8}
45 км н/о +28.8 +13.9 40 +31 +31 жарко 1013.6 1008.1 +21.5 +32.8 0
19 16.07 ЮЗ 2-3
{4}
60 км н/о +26.6 +13.3 44 +29 +29 жарко 1013.8 1008.3
20 16.07 ЮЗ 2-3
{3}
60 км н/о +24.5 +13.7 51 +27 +27 жарко 1014.3 1008.8
21 16.07 Ю 2-3
{3}
60 км н/о +23.0 +15.1 61 +27 +27 душно 1014.5 1008.9 0
22 16.07 ЮВ 1-2
{3}
55 км н/о +21.5 +15.8 70 +25 +25 комфорт 1014.6 1009.0
23 16.07 В 1-1
{2}
55 км н/о +19.9 +14.9 73 +24 +24 комфорт 1014.6 1009.0
00 17.07 В 1-1
{2}
45 км н/о +19.2 +14.5 74 +22 +22 комфорт 1014.5 1008.9 0
01 17.07 ЮВ 1-1
{1}
50 км н/о +18.4 +13.9 75 +21 +21 комфорт 1013.9 1008.3
02 17.07 СЗ 1-1
{1}
35 км н/о +16.6 +13.5 82 +18 +18 1013.7 1008.0
03 17.07 В 1-1
{1}
40 км н/о +16.2 +13.3 83 +17 +17 1013.5 1007.8 0
04 17.07 ЮВ 1-1
{1}
35 км н/о +15.3 +12.1 81 +17 +17 1013.7 1008.0
05 17.07 Ю 1-1
{1}
16 км н/о +16.0 +13.1 83 +17 +17 1013.8 1008.1
06 17.07 штиль 0
{2}
40 км н/о +20.9 +14.5 67 +24 +24 комфорт 1013.8 1008.2 +14.8 +28.7 0
07 17.07 С 1-1
{1}
19 км н/о +23.5 +13.9 55 +26 +26 жарко 1014.1 1008.5
08 17.07 СЗ 1-2
{2}
45 км н/о +25.4 +12.9 46 +27 +27 жарко 1013.9 1008.4
09 17.07 СЗ 1-3
{3}
55 км н/о +27.0 +11.9 39 +28 +28 жарко 1013.5 1008.0 0
10 17.07 СЗ 2-4
{4}
50 км н/о +29.0 +10.6 32 +29 +29 жарко 1013.1 1007.6
11 17.07 СЗ 3-4
{4}
19 км н/о +31.0 +10.4 28 +31 +31 жарко 1012.7 1007.3
12 17.07 С 2-4
{4}
50 км н/о +32.9 +9.7 24 +32 +32 жарко 1012.1 1006.7 0
13 17.07 СЗ 3-5
{6}
50 км н/о +32.5 +8.0 22 +31 +31 жарко 1011.6 1006.2
14 17.07 З 2-5
{5}
60 км н/о +33.9 +9.2 22 +33 +33 жарко 1011.2 1005.8
15 17.07 С 2-4
{4}
55 км н/о +33.8 +9.1 22 +33 +33 жарко 1010.7 1005.3 0
16 17.07 ЮЗ 4-4
{8}
55 км н/о +33.5 +11.9 27 +34 +34 очень
жарко
1010.2 1004.8
17 17.07 ЮЗ 6-5
{10}
60 км н/о +31.3 +11.1 29 +31 +31 жарко 1010.2 1004.8
18 17.07 ЮЗ 5
{11}
50 км н/о +30.1 +11.6 32 +31 +31 жарко 1010.2 1004.8 +20.7 +34.5 0
19 17.07 ЮЗ 3-3
{8}
55 км н/о +28.3 +12.6 38 +30 +30 жарко 1010.4 1005.0
20 17.07 Ю 2
{6}
55 км н/о +25.3 +13.5 48 +27 +27 жарко 1011.1 1005.6
21 17.07 СВ 1-1
{2}
50 км н/о +21.6 +14.3 63 +25 +25 комфорт 1011.5 1005.9 0
22 17.07 В 1-1
{1}
50 км н/о +20.4 +13.8 66 +24 +24 комфорт 1011.5 1005.9
23 17.07 В 2-2
{3}
45 км н/о +19.8 +13.7 68 +22 +22 комфорт 1011.3 1005.7
00 18.07 СВ 1-1
{1}
40 км н/о +18.8 +13.6 72 +21 +21 комфорт 1011.3 1005.7 0
01 18.07 штиль 0-1
{1}
40 км н/о +17.1 +13.0 77 +17 +17 1011.1 1005.4
02 18.07 Ю 1-1
{1}
35 км н/о +16.8 +12.3 75 +18 +18 1011.1 1005.4
03 18.07 штиль 0-1
{2}
35 км н/о +16.9 +13.0 78 +17 +17 1011.3 1005.6 0
04 18.07 Ю 1-1
{2}
40 км н/о +15.6 +11.4 76 +16 +16 1011.5 1005.8
05 18.07 З 1-1
{2}
35 км н/о +16.5 +11.8 74 +18 +18 1012.0 1006.3
06 18.07 С 2
{5}
45 км н/о +23.4 +11.4 47 +26 +26 жарко 1012.3 1006.8 +15.6 +30.1 0
07 18.07 СЗ 3-4
{4}
60 км н/о +25.5 +10.5 39 +26 +26 жарко 1012.7 1007.2
08 18.07 СЗ 3-4
{5}
60 км н/о +27.4 +10.6 35 +28 +28 жарко 1012.8 1007.3
09 18.07 СЗ 3-5
{5}
55 км н/о +28.8 +10.5 32 +29 +29 жарко 1012.5 1007.0 0
10 18.07 СЗ 3-5
{5}
45 км н/о +30.3 +10.3 29 +30 +30 жарко 1012.2 1006.8
11 18.07 СЗ 4-6
{6}
40 км н/о +32.0 +9.5 25 +31 +31 жарко 1011.9 1006.5
12 18.07 СЗ 3-5
{6}
40 км н/о +32.4 +7.3 21 +31 +31 жарко 1011.8 1006.4 0
13 18.07 СЗ 3-5
{6}
35 км н/о +32.7 +8.9 23 +32 +32 жарко 1011.4 1006.0
14 18.07 СЗ 3-5
{6}
35 км н/о +33.2 +8.6 22 +32 +32 жарко 1011.2 1005.8
15 18.07 СЗ 3-5
{5}
35 км н/о +33.6 +8.9 22 +32 +32 жарко 1010.9 1005.5 0
16 18.07 С 2-4
{5}
50 км н/о +33.8 +9.1 22 +33 +33 жарко 1010.6 1005.2
17 18.07 СЗ 2-4
{4}
45 км н/о +33.4 +9.4 23 +32 +32 жарко 1010.5 1005.1
18 18.07 С 2
{7}
55 км н/о +31.6 +9.8 26 +31 +31 жарко 1010.8 1005.4 +23.4 +34.1 0
19 18.07 С 1-1
{3}
55 км н/о +29.6 +10.7 31 +30 +30 жарко 1011.3 1005.9
20 18.07 С 1-2
{2}
55 км н/о +26.6 +10.3 36 +27 +27 жарко 1012.1 1006.6
21 18.07 СЗ 2-3
{3}
60 км н/о +26.1 +9.9 36 +27 +27 жарко 1012.7 1007.2 0
22 18.07 С 2-4
{4}
55 км н/о +25.4 +11.2 41 +27 +27 жарко 1013.2 1007.7
23 18.07 С 3-5
{5}
60 км н/о +25.3 +11.1 41 +27 +27 жарко 1013.5 1008.0
00 19.07 С 2-4
{5}
60 км н/о +24.3 +10.2 41 +25 +25 комфорт 1013.8 1008.3 0
01 19.07 С 2-4
{4}
60 км н/о +23.1 +10.2 44 +25 +25 комфорт 1014.1 1008.5
02 19.07 С 2-4
{4}
60 км н/о +22.6 +9.4 43 +24 +24 комфорт 1014.5 1008.9
03 19.07 С 2-4
{4}
60 км н/о +21.9 +9.1 44 +23 +23 комфорт 1014.8 1009.2 0
04 19.07 С 2-3
{4}
60 км н/о +21.8 +9.7 46 +23 +23 комфорт 1015.0 1009.4
05 19.07 СЗ 2-2
{3}
50 км н/о +21.5 +10.0 48 +23 +23 комфорт 1015.3 1009.7
06 19.07 С 2
{5}
50 км н/о +23.3 +10.7 45 +25 +25 комфорт 1015.6 1010.0 +21.4 +31.6 0
07 19.07 СЗ 1-2
{3}
26 км н/о +24.8 +11.4 43 +26 +26 жарко 1016.0 1010.5
08 19.07 СЗ 2-3
{3}
45 км н/о +26.2 +11.1 39 +27 +27 жарко 1016.0 1010.5
09 19.07 С 2-3
{4}
50 км н/о +27.7 +10.8 35 +28 +28 жарко 1016.2 1010.7 0
10 19.07 З 2-4
{4}
55 км н/о +29.1 +12.1 35 +30 +30 жарко 1016.0 1010.5
11 19.07 СЗ 1-3
{3}
55 км н/о +30.4 +11.4 31 +31 +31 жарко 1015.5 1010.1
12 19.07 З 1-3
{3}
60 км н/о +31.4 +10.7 28 +31 +31 жарко 1015.1 1009.7 0
13 19.07 СЗ 1-2
{3}
55 км н/о +32.3 +10.3 26 +32 +32 жарко 1014.7 1009.3
14 19.07 Ю 1-3
{4}
60 км н/о +33.1 +9.8 24 +32 +32 жарко 1014.3 1008.9
15 19.07 СЗ 1-3
{3}
55 км н/о +33.7 +9.7 23 +33 +33 жарко 1013.9 1008.5 0
17 19.07 ЮЗ 3-5
{5}
55 км н/о +30.9 +12.3 32 +32 +32 жарко 1014.1 1008.7
18 19.07 ЮЗ 3
{9}
45 км н/о +29.0 +10.6 32 +29 +29 жарко 1014.4 1008.9 +23.3 +34.3 0
19 19.07 Ю 2-3
{4}
60 км н/о +26.7 +10.8 37 +28 +28 жарко 1014.9 1009.4
20 19.07 Ю 2-2
{3}
60 км н/о +23.2 +13.4 54 +26 +26 жарко 1015.6 1010.0
21 19.07 Ю 1-1
{2}
55 км н/о +21.9 +12.4 55 +24 +24 комфорт 1016.3 1010.7 0
22 19.07 ЮВ 1-1
{2}
55 км н/о +20.0 +11.7 59 +23 +23 комфорт 1016.4 1010.8
23 19.07 ЮВ 1-1
{1}
45 км н/о +18.5 +11.3 63 +21 +21 комфорт 1016.5 1010.8
00 20.07 ЮВ 1-1
{1}
40 км н/о +18.0 +12.2 69 +20 +20 1016.5 1010.8 0
01 20.07 Ю 1-1
{1}
30 км н/о +17.3 +12.6 74 +19 +19 1016.3 1010.6
02 20.07 Ю 1-1
{1}
27 км н/о +16.2 +12.9 81 +18 +18 1016.3 1010.6
03 20.07 Ю 1-2
{2}
28 км н/о +16.1 +12.6 80 +17 +17 1016.6 1010.9 0
05 20.07 Ю 1-2
{2}
16 км н/о +16.6 +13.1 80 +17 +17 1017.1 1011.4
06 20.07 З 1
{3}
35 км н/о +21.0 +13.9 64 +25 +25 комфорт 1017.2 1011.6 +14.8 +29.0 0
07 20.07 ЮЗ 1-2
{2}
40 км н/о +24.0 +15.5 59 +27 +27 жарко 1017.8 1012.2
08 20.07 Ю 1-2
{3}
55 км н/о +26.6 +15.9 52 +30 +30 душно 1018.3 1012.8
09 20.07 З 2-3
{4}
18 км н/о +27.5 +17.9 56 +32 +32 очень
душно
1019.0 1013.5 0
10 20.07 ЮВ 1 30 км 9/9
[]
+27.1 +17.6 56 +31 +33 душно 1018.2 1012.7
11 20.07 СВ 1 30 км 9/9
[]
+27.7 +17.8 55 +32 +34 очень
душно
1018.2 1012.7 0.0
12 20.07 ЮЗ 1
{6}
30 км н/о +30.5 +17.6 46 +35 +35 очень
душно
1017.6 1012.2 0.0 0
13 20.07 Ю 3-5
{5}
24 км н/о +32.6 +12.3 29 +33 +33 жарко 1017.4 1012.0
14 20.07 Ю 3-5
{5}
40 км н/о +33.0 +14.6 33 +35 +35 душно 1017.1 1011.7
15 20.07 ЮЗ 3-5
{6}
35 км н/о +31.6 +12.9 32 +32 +32 жарко 1017.2 1011.8 0
16 20.07 Ю 3-5
{5}
50 км н/о +31.2 +14.4 36 +33 +33 жарко 1017.4 1012.0
17 20.07 ЮЗ 3-4
{5}
60 км н/о +30.1 +14.2 38 +32 +32 жарко 1017.6 1012.2
18 20.07 ЮЗ 2
{8}
50 км н/о +28.9 +15.1 43 +31 +31 жарко 1017.9 1012.4 +21.0 +33.2 0
19 20.07 ЮЗ 2-3
{3}
35 км н/о +26.2 +18.3 62 +31 +31 очень
душно
1018.4 1012.9
20 20.07 ЮЗ 2-2
{3}
40 км н/о +24.6 +17.6 65 +29 +29 душно 1019.5 1013.9
21 20.07 ЮВ 1-1
{2}
35 км н/о +22.6 +16.8 70 +27 +27 душно 1019.9 1014.3
22 20.07 В 1-1
{1}
30 км н/о +20.1 +16.1 78 +24 +24 комфорт 1020.1 1014.5
23 20.07 штиль 0-1
{1}
29 км н/о +18.4 +15.3 82 +19 +19 1020.5 1014.8

 

Местоположение метеостанции Авиньон (Франция): широта 43.91 долгота 4.90 высота над уровнем моря 48 м.

В архиве по умолчанию представлена погода в Авиньон за последнюю неделю. Архивные данные за месяц целиком и за предыдущие месяцы, начиная с января 2011 года, Вы можете получить, выбрав интересующий диапазон дат из раскрывающегося списка и нажав кнопку "Ввод!".


*Определитесь, кто Вы:
робот инопланетянин человек

Внимание! Время в таблицах - всемирное. Для получения местного времени необходимо прибавить поправку, которая равна 1 ч.

Смотрите также архив погоды в соседних городах и на ближайших метеорологических станциях:

Погода в Карпентрасе (Франция) (22 км)
Погода в Оранже (Франция) (25 км)
Погода в Салон-де-Провансе (Франция) (38 км)
Погода в Ним аэропорту (Франция) (40 км)
Погода в Ниме (Франция) (42 км)
Погода в Истре (Франция) (43 км)
Погода в Мариньяне (Франция) (58 км)
Погода на Ла Куроне (Франция) (66 км)
Погода в Монтелимаре (Франция) (76 км)
Погода в Обене (Франция) (81 км)

Пояснения к столбцам:

Ветер - указаны скорость ветра в м/с - средняя за 10 мин, порывы в срок и между сроками (в фигурных скобках) и направление, откуда дует ветер: С - северный, СВ - северо-восточный, В - восточный, ЮВ - юго-восточный, Ю - южный, ЮЗ - юго-западный, З - западный, СЗ - северо-западный.
Видимость - горизонтальная дальность видимости в метрах или километрах. При видимости от 1 до 10 км при отсутствии осадков обычно наблюдается дымка, при ухудшении видимости до 1 км и менее - туман. В сухую погоду видимость может ухудшаться дымом, пылью или мглою.
Явления - указаны атмосферные явления, наблюдавшиеся в срок или в последний час перед сроком; фигурными скобками обозначены явления, наблюдавшиеся между сроками (за 1-3 часа до срока); квадратными скобками обозначены град или гололедные отложения с указанием их диаметра в мм.
Облачность - указаны через наклонную черту общая и нижняя облачность в баллах и высота нижней границы облаков в метрах; квадратными скобками обозначены формы облаков: Ci - перистые, Cs - перисто-слоистые, Cc - перисто-кучевые, Ac - высококучевые, As - высокослоистые, Sc - слоисто-кучевые, Ns - слоисто-дождевые, Cu - кучевые, Cb - кучево-дождевые. Подробнее классификацию облаков см. в Атласе облаков (PDF).
T - Температура воздуха - температура, измеренная на высоте 2 м над землей.
Td - Температура точки росы - температура, при понижении до которой содержащийся в воздухе водяной пар достигнет насыщения.
f - Относительная влажность воздуха - влажноcть воздуха, измеренная на высоте 2 м над землей.
Te - Эффективная температура - температура, которую ощущает одетый по сезону человек в тени. Характеристика душности погоды. При расчете учитывается влияние влажности воздуха и скорости ветра на теплоощущения человека.
Tes - Эффективная температура на солнце - температура, которую ощущает человек, с поправкой на солнечный нагрев. Характеристика знойности погоды. Зависит от высоты солнца над горизонтом, облачности и скорости ветра. Ночью, в пасмурную погоду, а также при ветре 12 м/с и более поправка равна нулю.
P - Атмосферное давление - приведенное к уровню моря атмосферное давление.
Po - Атмосферное давление - измеренное на уровне метеостанции атмосферное давление.
Tmin - Минимальная температура - минимум температуры воздуха на высоте 2 м над землей.
Tmax - Максимальная температура - максимум температуры воздуха на высоте 2 м над землей.
R - Количество осадков - Количество выпавших осадков за период времени, мм. При наведении курсора мыши на число - период времени, за который выпало указанное количество осадков.
R24 - Количество осадков - Количество выпавших осадков за 24 часа, мм.
S - Снежный покров - Высота снежного покрова, см. При наведении курсора мыши на число - состояние снежного покрова и степень покрытия местности в баллах.